Weather History for Melbourne, FL

Change the Weather History Date:

Friday, June 28, 2013

  Actual Average Record
Temperature  
Mean Temperature 84 °F 81 °F  
Max Temperature 94 °F 90 °F 97 °F (1950)
Min Temperature 74 °F 72 °F 64 °F (1970)
Degree Days  
Heating Degree Days 0 0  
Month to date heating degree days 0 0  
Since 1 June heating degree days 0 0  
Since 1 July heating degree days 463 577  
Cooling Degree Days 19 16  
Month to date cooling degree days 461 431  
Year to date cooling degree days 1322 1157  
Since 1 June cooling degree days 461 431  
Growing Degree Days 33 (Base 50)    
Moisture  
Dew Point 72 °F    
Average Humidity 70    
Maximum Humidity 93    
Minimum Humidity 46    
Precipitation  
Precipitation 0.15 in 0.22 in 2.58 in (1996)
Month to date precipitation 5.74 6.25  
Year to date precipitation 21.07 19.75  
Sea Level Pressure  
Sea Level Pressure 29.93 in    
Wind  
Wind Speed 8 mph (SSW)    
Max Wind Speed 26 mph    
Max Gust Speed 35 mph    
Visibility 9 miles    
Events Rain , Thunderstorm    
T = Trace of Precipitation, MM = Missing Value Source: NWS Daily Summary

Daily Weather History Graph

Daily Weather History Graph

Search for Another Location

Airport:

Trip Planner

Search our weather history database for the weather conditions in past years. The results will help you decide how hot, cold, wet, or windy it might be!

Date:

Astronomy

Jun. 28, 2013 Rise Set
Actual Time 6:28 AM EDT 8:23 PM EDT
Civil Twilight 6:01 AM EDT 8:49 PM EDT
Nautical Twilight 5:29 AM EDT 9:22 PM EDT
Astronomical Twilight 4:55 AM EDT 9:56 PM EDT
Moon No Moon Rise 12:03 PM EDT (6/28)
Length of Visible Light 14h 48m
Length of Day
13h 54m
Waning Gibbous, 66% of the Moon is Illuminated
Jun 28
Waning Gibbous
Jun 30
Last Quarter
Jul 8
New
Jul 15
First Quarter
Jul 22
Full

Hourly Weather History & Observations

Time (EDT) Temp. Heat Index Dew Point Humidity Pressure Visibility Wind Dir Wind Speed Gust Speed Precip Events Conditions
12:53 AM 78.1 °F - 73.0 °F 84% 29.99 in 10.0 mi SSW 3.5 mph - N/A   Mostly Cloudy
1:53 AM 77.0 °F - 71.1 °F 82% 29.99 in 10.0 mi SSW 8.1 mph - N/A   Partly Cloudy
2:53 AM 77.0 °F - 69.1 °F 76% 29.97 in 10.0 mi SSW 8.1 mph - N/A   Clear
3:53 AM 75.9 °F - 70.0 °F 82% 29.96 in 10.0 mi SW 5.8 mph - N/A   Partly Cloudy
4:53 AM 75.0 °F - 70.0 °F 84% 29.96 in 10.0 mi SW 5.8 mph - N/A   Clear
5:53 AM 75.0 °F - 70.0 °F 84% 29.96 in 10.0 mi SSW 4.6 mph - N/A   Clear
6:53 AM 73.9 °F - 71.1 °F 91% 29.98 in 10.0 mi Calm Calm - N/A   Clear
7:53 AM 78.1 °F - 71.1 °F 79% 29.97 in 10.0 mi SSW 5.8 mph - N/A   Partly Cloudy
8:53 AM 81.0 °F 85.2 °F 72.0 °F 74% 29.96 in 10.0 mi SSW 9.2 mph - N/A   Clear
9:53 AM 84.9 °F 92.1 °F 73.9 °F 69% 29.96 in 10.0 mi WSW 11.5 mph - N/A   Clear
10:53 AM 87.1 °F 94.5 °F 73.0 °F 63% 29.96 in 10.0 mi SW 10.4 mph - N/A   Scattered Clouds
11:53 AM 88.0 °F 94.7 °F 72.0 °F 59% 29.95 in 10.0 mi SW 9.2 mph - N/A   Scattered Clouds
12:53 PM 91.0 °F 97.6 °F 71.1 °F 52% 29.93 in 10.0 mi SW 12.7 mph 19.6 mph N/A   Partly Cloudy
1:53 PM 93.0 °F 100.1 °F 71.1 °F 49% 29.91 in 10.0 mi WSW 13.8 mph - N/A   Scattered Clouds
2:53 PM 93.0 °F 100.7 °F 72.0 °F 50% 29.88 in 10.0 mi WSW 12.7 mph - N/A   Partly Cloudy
3:53 PM 93.0 °F 99.0 °F 70.0 °F 47% 29.86 in 10.0 mi SW 11.5 mph - N/A   Mostly Cloudy
4:23 PM 89.6 °F 94.7 °F 69.8 °F 52% 29.85 in 10.0 mi WSW 17.3 mph - N/A Thunderstorm Thunderstorm
4:35 PM 80.6 °F 84.6 °F 71.6 °F 74% 29.87 in 2.5 mi WSW 17.3 mph 34.5 mph 0.04 in Rain , Thunderstorm Thunderstorms and Rain
4:53 PM 80.1 °F 85.1 °F 75.0 °F 85% 29.90 in 3.0 mi SW 19.6 mph 29.9 mph N/A Rain , Thunderstorm Thunderstorms and Rain
5:12 PM 75.2 °F - 69.8 °F 83% 29.89 in 3.0 mi SW 12.7 mph 20.7 mph 0.01 in Rain , Thunderstorm Thunderstorms and Rain
5:53 PM 78.1 °F - 73.0 °F 84% 29.88 in 10.0 mi Calm Calm - 0.03 in Thunderstorm Mostly Cloudy
6:53 PM 79.0 °F - 73.0 °F 82% 29.90 in 10.0 mi Calm Calm - 0.00 in Rain Light Rain
7:53 PM 77.0 °F - 72.0 °F 84% 29.88 in 10.0 mi South 4.6 mph - 0.00 in   Clear
8:53 PM 77.0 °F - 72.0 °F 84% 29.89 in 10.0 mi South 5.8 mph - N/A   Clear
9:53 PM 77.0 °F - 72.0 °F 84% 29.92 in 10.0 mi South 6.9 mph - N/A   Clear
10:53 PM 77.0 °F - 72.0 °F 84% 29.93 in 10.0 mi SSE 8.1 mph - N/A   Clear
11:53 PM 75.9 °F - 71.1 °F 85% 29.91 in 10.0 mi South 9.2 mph - N/A   Partly Cloudy